"startDT [UTC]","vpos","CH4 [ppm]","stdev(CH4) [ppm]","CO2 [ppm]","stdev(CO2) [ppm]","H2O_reported [%]","stdev(H2O_reported)","CavityPressure [torr]","CavityTemp [C]","OutletValve","CH4_dry [ppm]","CO2_dry [ppm]","DasTemp [C]","EtalonTemp [C]","WarmBoxTemp [C]","MPVPosition","T_ECpre [C]","T_EC1 [C]","T_EC2 [C]","p_inlet [hPa]","p_in [hPa]","p_out [hPa]","T_inlet [C]","RH_inlet [%]","dwpt_inlet [C]","T_vent [C]","RH_vent [%]","dwpt_vent [C]","flow_vent [l min-1]","flow_inlet [l min-1]","dwpt_sample [C]","T_room [C]"
2015-09-15 00:00:00,0.0,1.92666,0.00037,386.664,0.030,1.0130,0.0033,139.996,45.000,31657.86884,1.94652,391.530,34.658,45.069,45.001,0.00,0.10,-272.75,-272.80,-9,516,-942,21.6,30.9,3.7,21.7,31.4,4.0,5.73,2.00,1.8,27.0
2015-09-15 00:01:00,0.0,1.92667,0.00041,386.688,0.027,1.0212,0.0024,140.000,45.001,31661.12858,1.94665,391.593,34.710,45.069,45.001,0.00,0.10,-272.74,-272.80,-9,516,-942,21.6,31.2,3.8,21.7,31.7,4.1,5.73,2.11,1.8,27.0
2015-09-15 00:02:00,0.0,1.92640,0.00034,386.631,0.047,1.0237,0.0035,140.000,45.001,31665.51427,1.94648,391.555,34.775,45.069,45.001,0.00,0.10,-272.74,-272.81,-9,516,-942,21.6,31.3,3.8,21.7,31.9,4.2,5.73,1.98,1.8,27.1
2015-09-15 00:03:00,0.0,1.92655,0.00028,386.596,0.030,1.0138,0.0032,140.000,45.001,31669.27114,1.94638,391.466,34.816,45.069,45.001,0.00,0.10,-272.74,-272.81,-10,516,-942,21.6,31.0,3.7,21.6,31.7,4.1,5.73,1.82,1.8,27.1
2015-09-15 00:04:00,0.0,1.92698,0.00045,386.611,0.034,1.0123,0.0024,140.001,45.001,31670.68469,1.94682,391.474,34.831,45.069,45.001,0.00,0.10,-272.74,-272.81,-10,516,-942,21.5,31.0,3.7,21.6,31.6,4.0,5.73,1.86,1.8,27.1
2015-09-15 00:05:00,0.0,1.92670,0.00037,386.585,0.023,1.0107,0.0019,140.002,45.001,31675.36692,1.94652,391.440,34.822,45.068,45.000,0.00,0.10,-272.74,-272.80,-10,516,-942,21.5,31.0,3.7,21.6,31.6,4.0,5.73,1.98,1.8,27.0
2015-09-15 00:06:00,0.0,1.92634,0.00043,386.670,0.058,1.0061,0.0052,140.001,45.000,31672.18547,1.94603,391.501,34.774,45.068,44.999,0.00,0.10,-272.75,-272.80,-10,516,-942,21.6,30.8,3.6,21.6,31.5,3.9,5.73,2.04,1.8,27.0
2015-09-15 00:07:00,0.0,1.92630,0.00026,386.700,0.029,1.0006,0.0021,139.999,45.000,31669.67897,1.94588,391.508,34.704,45.067,44.999,0.00,0.10,-272.75,-272.81,-10,516,-942,21.6,30.5,3.5,21.6,31.2,3.9,5.73,2.03,1.8,27.0
2015-09-15 00:08:00,0.0,1.92591,0.00036,386.706,0.047,1.0034,0.0035,139.999,44.999,31667.48652,1.94557,391.523,34.628,45.067,44.999,0.00,0.10,-272.74,-272.80,-10,516,-942,21.6,30.6,3.6,21.6,31.2,3.9,5.73,2.00,1.8,27.1
2015-09-15 00:09:00,0.0,1.92609,0.00033,386.734,0.057,1.0074,0.0026,140.003,44.999,31664.09248,1.94578,391.574,34.570,45.067,44.999,0.00,0.31,-270.96,-270.26,-10,516,-942,21.7,30.7,3.7,21.6,31.4,4.0,5.43,2.05,-4.8,27.0
2015-09-15 00:10:00,0.0,1.92611,0.00035,386.717,0.035,1.0075,0.0019,140.002,44.999,31661.39287,1.94584,391.557,34.535,45.067,44.999,0.00,0.10,-272.74,-272.81,-10,516,-942,21.7,30.7,3.6,21.7,31.4,4.0,5.73,1.92,1.8,27.0
2015-09-15 00:11:00,0.0,1.92561,0.00045,386.756,0.052,1.0067,0.0024,140.001,44.999,31660.27207,1.94536,391.589,34.500,45.067,44.999,0.00,0.10,-272.74,-272.80,-10,516,-941,21.7,30.7,3.6,21.6,31.4,3.9,5.73,1.86,1.8,27.0
2015-09-15 00:12:00,0.0,1.92566,0.00035,386.729,0.038,1.0124,0.0024,140.000,44.999,31657.65453,1.94545,391.595,34.498,45.067,45.000,0.00,0.10,-272.73,-272.80,-9,516,-942,21.6,30.9,3.7,21.6,31.5,4.0,5.73,1.85,1.8,27.0
2015-09-15 00:13:00,0.0,1.92558,0.00042,386.696,0.060,1.0146,0.0020,139.999,45.000,31658.96205,1.94544,391.574,34.503,45.068,45.000,0.00,0.10,-272.75,-272.80,-9,516,-942,21.6,31.0,3.7,21.6,31.6,4.0,5.73,1.95,1.8,26.9
2015-09-15 00:14:00,0.0,1.92575,0.00039,386.743,0.103,1.0163,0.0022,140.001,45.000,31661.91635,1.94565,391.624,34.575,45.069,45.001,0.00,0.09,-272.75,-272.80,-9,516,-942,21.6,31.1,3.8,21.6,31.7,4.1,5.73,2.10,1.8,27.0
2015-09-15 00:15:00,0.0,1.92587,0.00042,386.727,0.089,1.0188,0.0019,139.999,45.001,31663.37788,1.94581,391.627,34.663,45.069,45.001,0.00,0.10,-272.73,-272.80,-10,516,-942,21.6,31.1,3.8,21.7,31.8,4.1,5.73,2.03,1.8,27.0
2015-09-15 00:16:00,0.0,1.92622,0.00035,386.659,0.036,1.0110,0.0024,140.003,45.002,31668.25983,1.94603,391.516,34.764,45.070,45.002,0.00,0.10,-272.74,-272.81,-10,516,-942,21.6,30.8,3.7,21.7,31.5,4.0,5.73,1.79,1.8,27.0
2015-09-15 00:17:00,0.0,1.92637,0.00040,386.663,0.036,1.0064,0.0026,140.000,45.002,31673.24087,1.94604,391.497,34.877,45.070,45.001,0.00,0.10,-272.75,-272.81,-10,516,-942,21.6,30.7,3.6,21.7,31.4,4.0,5.73,1.90,1.8,27.1
2015-09-15 00:18:00,0.0,1.92624,0.00036,386.706,0.052,1.0111,0.0021,140.001,45.002,31678.41038,1.94606,391.564,34.956,45.069,45.001,0.00,0.10,-272.74,-272.80,-9,516,-942,21.6,30.8,3.6,21.7,31.4,4.0,5.73,2.10,1.8,27.1
2015-09-15 00:19:00,0.0,1.92625,0.00039,386.632,0.043,1.0053,0.0032,139.998,45.002,31681.27495,1.94592,391.460,35.014,45.069,45.001,0.00,0.10,-272.74,-272.80,-9,516,-943,21.6,30.7,3.6,21.7,31.4,4.0,5.73,2.04,1.8,27.1
2015-09-15 00:20:00,0.0,1.92668,0.00035,386.687,0.037,1.0013,0.0027,140.001,45.001,31682.63650,1.94626,391.497,35.009,45.068,45.000,0.00,0.10,-272.74,-272.81,-10,516,-943,21.6,30.6,3.5,21.7,31.2,3.9,5.73,1.91,1.8,27.1
2015-09-15 00:21:00,0.0,1.92720,0.00040,386.669,0.027,1.0002,0.0026,139.999,45.001,31681.42138,1.94677,391.472,34.983,45.067,44.999,0.00,0.10,-272.75,-272.81,-10,516,-942,21.6,30.5,3.5,21.7,31.1,3.9,5.73,1.86,1.8,27.1
2015-09-15 00:22:00,0.0,1.92715,0.00050,386.705,0.029,0.9974,0.0028,140.000,45.000,31681.56506,1.94674,391.495,34.898,45.067,44.998,0.00,0.10,-272.74,-272.80,-10,516,-943,21.7,30.4,3.5,21.7,31.1,3.9,5.73,1.88,1.8,27.1
2015-09-15 00:23:00,0.0,1.92697,0.00036,386.698,0.045,0.9985,0.0013,139.999,44.999,31679.87721,1.94647,391.493,34.783,45.066,44.998,0.00,0.10,-272.74,-272.80,-10,516,-942,21.7,30.4,3.6,21.7,31.1,3.9,5.73,1.91,1.8,27.1
2015-09-15 00:24:00,0.0,1.92745,0.00039,386.700,0.024,1.0001,0.0018,139.999,44.998,31675.82931,1.94702,391.502,34.691,45.066,44.999,0.00,0.10,-272.75,-272.81,-10,516,-942,21.8,30.4,3.6,21.7,31.1,3.9,5.73,1.94,1.8,27.1
2015-09-15 00:25:00,0.0,1.92712,0.00040,386.696,0.029,1.0043,0.0028,140.001,44.998,31671.48950,1.94683,391.520,34.605,45.067,44.999,0.00,0.10,-272.74,-272.79,-10,516,-942,21.8,30.5,3.6,21.7,31.1,3.9,5.73,1.98,1.8,27.1
2015-09-15 00:26:00,0.0,1.92688,0.00033,386.724,0.039,1.0108,0.0020,139.999,44.998,31667.41453,1.94666,391.580,34.529,45.067,44.999,0.00,0.10,-272.74,-272.80,-10,517,-942,21.7,30.7,3.7,21.7,31.4,4.0,5.73,2.01,1.8,27.1
2015-09-15 00:27:00,0.0,1.92682,0.00031,386.723,0.029,1.0124,0.0027,140.001,44.998,31665.06193,1.94665,391.587,34.500,45.068,45.000,0.00,0.09,-272.75,-272.81,-10,517,-942,21.7,30.7,3.7,21.7,31.4,4.0,5.73,2.04,1.8,27.1
2015-09-15 00:28:00,0.0,1.92697,0.00036,386.759,0.053,1.0101,0.0017,139.999,44.999,31660.11755,1.94675,391.613,34.493,45.068,45.000,0.00,0.10,-272.74,-272.80,-10,516,-942,21.7,30.7,3.7,21.7,31.4,4.0,5.73,2.03,1.8,27.1
2015-09-15 00:29:00,0.0,1.92672,0.00031,386.730,0.035,1.0066,0.0013,140.002,44.999,31661.18523,1.94646,391.566,34.493,45.068,45.001,0.00,0.10,-272.73,-272.80,-10,516,-942,21.7,30.6,3.6,21.7,31.3,3.9,5.73,1.95,1.8,27.0
2015-09-15 00:30:00,0.0,1.92683,0.00046,386.856,0.057,1.0103,0.0027,140.001,45.000,31661.47964,1.94660,391.709,34.532,45.069,45.001,0.00,0.10,-272.74,-272.81,-10,516,-942,21.6,30.8,3.7,21.7,31.4,4.0,5.73,1.82,1.8,27.0
2015-09-15 00:31:00,0.0,1.92688,0.00042,386.852,0.054,1.0122,0.0021,139.999,45.001,31665.39478,1.94668,391.716,34.598,45.069,45.001,0.00,0.10,-272.74,-272.81,-9,516,-942,21.6,30.9,3.7,21.7,31.5,4.0,5.73,1.87,1.8,27.0
2015-09-15 00:32:00,0.0,1.92681,0.00039,386.771,0.101,1.0093,0.0030,140.000,45.001,31669.77302,1.94660,391.624,34.681,45.069,45.001,0.00,0.10,-272.74,-272.80,-9,516,-942,21.6,30.8,3.6,21.7,31.4,4.0,5.73,2.06,1.8,27.1
2015-09-15 00:33:00,0.0,1.92658,0.00037,386.724,0.033,1.0030,0.0028,140.000,45.001,31675.05370,1.94621,391.544,34.752,45.069,45.001,0.00,0.10,-272.74,-272.81,-10,516,-942,21.6,30.6,3.6,21.7,31.2,3.9,5.73,2.08,1.8,27.1
2015-09-15 00:34:00,0.0,1.92685,0.00026,386.767,0.043,1.0049,0.0037,140.002,45.001,31679.45280,1.94651,391.593,34.803,45.069,45.001,0.00,0.10,-272.74,-272.81,-10,516,-943,21.6,30.7,3.6,21.7,31.2,3.9,5.73,1.94,1.8,27.1
2015-09-15 00:35:00,0.0,1.92631,0.00031,386.788,0.061,1.0137,0.0025,140.002,45.001,31682.71330,1.94617,391.661,34.804,45.069,45.000,0.00,0.10,-272.75,-272.80,-10,516,-943,21.6,31.0,3.7,21.7,31.5,4.0,5.73,1.85,1.8,27.1
2015-09-15 00:36:00,0.0,1.92668,0.00042,386.700,0.050,1.0093,0.0024,140.001,45.000,31681.42278,1.94644,391.550,34.761,45.068,44.999,0.00,0.10,-272.74,-272.80,-10,516,-942,21.6,30.9,3.7,21.7,31.5,4.0,5.73,1.86,1.8,27.0
2015-09-15 00:37:00,0.0,1.92713,0.00040,386.696,0.046,1.0021,0.0016,140.002,45.000,31679.96827,1.94672,391.509,34.743,45.067,44.999,0.00,0.10,-272.75,-272.81,-10,516,-942,21.6,30.6,3.6,21.7,31.3,3.9,5.73,1.92,1.8,27.0
2015-09-15 00:38:00,0.0,1.92673,0.00037,386.748,0.054,1.0051,0.0029,139.998,44.999,31676.65312,1.94644,391.575,34.696,45.067,44.998,0.00,0.10,-272.75,-272.81,-10,516,-942,21.6,30.7,3.6,21.7,31.2,3.9,5.73,1.97,1.8,27.0
2015-09-15 00:39:00,0.0,1.92656,0.00033,386.768,0.026,1.0111,0.0026,140.002,44.999,31674.44405,1.94637,391.628,34.627,45.066,44.998,0.00,0.10,-272.74,-272.80,-10,516,-942,21.6,30.9,3.7,21.7,31.4,4.0,5.73,2.01,1.8,27.0
2015-09-15 00:40:00,0.0,1.92636,0.00058,386.705,0.044,1.0118,0.0029,139.998,44.999,31672.43023,1.94619,391.568,34.572,45.067,44.999,0.00,0.10,-272.74,-272.80,-10,516,-942,21.6,30.9,3.7,21.7,31.5,4.0,5.73,2.03,1.8,27.0
2015-09-15 00:41:00,0.0,1.92658,0.00036,386.704,0.036,1.0101,0.0014,139.999,44.999,31667.28824,1.94637,391.557,34.511,45.067,44.999,0.00,0.09,-272.74,-272.80,-10,516,-942,21.6,30.9,3.7,21.6,31.5,4.0,5.73,2.04,1.8,27.0
2015-09-15 00:42:00,0.0,1.92644,0.00041,386.703,0.034,1.0083,0.0022,140.001,44.999,31665.17131,1.94617,391.548,34.500,45.067,45.000,0.00,0.10,-272.73,-272.80,-10,516,-942,21.6,30.9,3.7,21.6,31.5,4.0,5.73,1.99,1.8,27.0
2015-09-15 00:43:00,0.0,1.92668,0.00040,386.707,0.039,1.0079,0.0026,140.000,44.999,31662.18309,1.94641,391.548,34.497,45.068,45.000,0.00,0.10,-272.74,-272.80,-9,516,-942,21.6,30.9,3.7,21.6,31.4,4.0,5.73,1.90,1.8,27.0
2015-09-15 00:44:00,0.0,1.92665,0.00031,386.710,0.045,1.0099,0.0022,140.002,45.000,31662.84453,1.94643,391.564,34.508,45.068,45.000,0.00,0.10,-272.75,-272.81,-9,516,-942,21.6,30.9,3.7,21.6,31.5,4.0,5.73,1.82,1.8,27.0
2015-09-15 00:45:00,0.0,1.92699,0.00039,386.717,0.039,1.0122,0.0022,140.002,45.000,31664.82111,1.94681,391.578,34.575,45.069,45.001,0.00,0.10,-272.74,-272.80,-9,516,-942,21.6,31.1,3.7,21.6,31.5,4.0,5.73,1.90,1.8,27.0
2015-09-15 00:46:00,0.0,1.92685,0.00036,386.644,0.047,1.0133,0.0036,140.002,45.001,31668.72805,1.94670,391.515,34.634,45.069,45.001,0.00,0.10,-272.74,-272.80,-10,516,-942,21.5,31.1,3.7,21.6,31.6,4.0,5.73,2.07,1.8,27.0
2015-09-15 00:47:00,0.0,1.92684,0.00026,386.744,0.088,1.0050,0.0024,140.000,45.002,31670.76531,1.94652,391.566,34.688,45.069,45.001,0.00,0.09,-272.75,-272.81,-10,516,-942,21.5,30.8,3.6,21.6,31.4,3.9,5.73,2.08,1.8,27.0
2015-09-15 00:48:00,0.0,1.92668,0.00039,386.964,0.070,1.0044,0.0017,140.001,45.002,31672.95062,1.94636,391.793,34.732,45.069,45.001,0.00,0.10,-272.74,-272.81,-10,516,-943,21.5,30.8,3.6,21.6,31.4,3.9,5.73,1.94,1.8,27.0
2015-09-15 00:49:00,0.0,1.92647,0.00040,386.891,0.066,0.9986,0.0035,140.001,45.002,31675.07602,1.94604,391.692,34.734,45.069,45.000,0.00,0.10,-272.74,-272.80,-10,516,-942,21.5,30.7,3.5,21.6,31.3,3.8,5.73,1.85,1.8,27.0
2015-09-15 00:50:00,0.0,1.92632,0.00046,386.966,0.118,0.9980,0.0020,140.001,45.001,31675.76728,1.94586,391.758,34.692,45.068,45.000,0.00,0.10,-272.75,-272.80,-10,516,-942,21.5,30.6,3.5,21.6,31.1,3.8,5.73,1.87,1.7,27.0
2015-09-15 00:51:00,0.0,1.92620,0.00033,386.979,0.087,0.9996,0.0019,140.001,45.000,31674.36429,1.94575,391.786,34.657,45.068,44.999,0.00,0.10,-272.75,-272.80,-10,516,-942,21.5,30.7,3.6,21.6,31.2,3.8,5.73,1.92,1.8,27.0
2015-09-15 00:52:00,0.0,1.92611,0.00025,386.830,0.056,1.0036,0.0024,140.000,45.000,31670.91423,1.94576,391.653,34.609,45.067,44.999,0.00,0.10,-272.74,-272.80,-10,516,-942,21.6,30.8,3.6,21.6,31.3,3.9,5.73,1.97,1.8,26.9
2015-09-15 00:53:00,0.0,1.92631,0.00037,386.822,0.045,1.0069,0.0019,139.999,44.999,31667.64180,1.94602,391.659,34.563,45.067,44.999,0.00,0.10,-272.75,-272.80,-10,516,-942,21.6,30.9,3.7,21.6,31.4,3.9,5.73,2.01,1.8,27.0
2015-09-15 00:54:00,0.0,1.92607,0.00034,386.866,0.055,1.0101,0.0029,139.999,44.999,31666.64048,1.94583,391.722,34.528,45.067,44.999,0.00,0.09,-272.75,-272.81,-10,516,-942,21.5,31.1,3.7,21.6,31.6,4.0,5.73,2.05,1.8,27.0
2015-09-15 00:55:00,0.0,1.92636,0.00029,386.734,0.043,1.0127,0.0021,140.000,44.999,31665.00358,1.94619,391.601,34.500,45.067,44.999,0.00,0.09,-272.74,-272.81,-9,516,-942,21.5,31.1,3.7,21.6,31.6,4.0,5.73,2.03,1.8,27.0
2015-09-15 00:56:00,0.0,1.92673,0.00035,386.756,0.035,1.0105,0.0018,140.002,44.999,31662.33612,1.94653,391.610,34.505,45.068,45.000,0.00,0.10,-272.73,-272.80,-9,516,-942,21.5,31.1,3.7,21.6,31.6,4.0,5.73,1.95,1.8,27.0
2015-09-15 00:57:00,0.0,1.92654,0.00041,386.755,0.045,1.0097,0.0021,140.002,45.000,31666.40325,1.94631,391.607,34.553,45.068,45.000,0.00,0.10,-272.74,-272.81,-9,516,-942,21.5,31.1,3.7,21.6,31.6,4.0,5.73,1.83,1.8,26.9
2015-09-15 00:58:00,0.0,1.92640,0.00043,386.727,0.032,1.0100,0.0019,140.001,45.001,31667.65390,1.94616,391.580,34.620,45.069,45.001,0.00,0.10,-272.75,-272.81,-10,516,-942,21.4,31.1,3.7,21.6,31.6,4.0,5.73,1.86,1.8,26.9
2015-09-15 00:59:00,0.0,1.92656,0.00056,386.744,0.027,1.0109,0.0021,140.000,45.001,31670.92785,1.94633,391.601,34.695,45.069,45.001,0.00,0.10,-272.74,-272.80,-10,516,-943,21.5,31.1,3.7,21.6,31.6,4.0,5.73,2.05,1.8,27.0
2015-09-15 01:00:00,0.0,1.92620,0.00069,386.788,0.036,1.0145,0.0022,140.002,45.001,31675.17398,1.94612,391.665,34.779,45.069,45.001,0.00,0.10,-272.75,-272.81,-10,516,-943,21.5,31.3,3.7,21.6,31.7,4.1,5.73,2.10,1.7,27.0
2015-09-15 01:01:00,0.0,1.92572,0.00041,386.765,0.046,1.0026,0.0061,140.000,45.002,31680.40134,1.94535,391.581,34.847,45.069,45.001,0.00,0.10,-272.75,-272.81,-9,516,-943,21.5,30.9,3.6,21.6,31.5,4.0,5.73,1.89,1.7,27.0
2015-09-15 01:02:00,0.0,1.92586,0.00035,386.835,0.030,1.0000,0.0027,140.000,45.002,31682.51746,1.94545,391.639,34.881,45.069,45.001,0.00,0.10,-272.74,-272.80,-9,516,-943,21.5,30.8,3.5,21.6,31.3,3.9,5.73,1.82,1.8,27.0
2015-09-15 01:03:00,0.0,1.92566,0.00035,386.788,0.032,1.0030,0.0025,140.000,45.001,31688.03441,1.94528,391.608,34.889,45.069,45.000,0.00,0.10,-272.74,-272.80,-9,516,-943,21.4,30.9,3.6,21.6,31.4,3.9,5.73,1.92,1.8,27.0
2015-09-15 01:04:00,0.0,1.92577,0.00042,386.829,0.038,1.0043,0.0022,139.996,45.000,31686.61128,1.94542,391.654,34.872,45.068,45.000,0.00,0.10,-272.76,-272.80,-10,516,-943,21.5,31.0,3.6,21.6,31.4,3.9,5.73,2.02,1.8,27.0
2015-09-15 01:05:00,0.0,1.92556,0.00036,386.809,0.036,1.0040,0.0019,140.001,45.000,31686.65359,1.94523,391.634,34.798,45.067,44.999,0.00,0.10,-272.75,-272.80,-10,516,-943,21.5,30.9,3.6,21.6,31.4,3.9,5.73,2.03,1.8,27.0
2015-09-15 01:06:00,0.0,1.92559,0.00039,386.848,0.038,1.0068,0.0021,139.998,44.999,31682.49818,1.94527,391.687,34.744,45.067,44.999,0.00,0.10,-272.74,-272.80,-10,516,-943,21.5,30.9,3.7,21.6,31.5,4.0,5.73,2.03,1.8,27.0
2015-09-15 01:07:00,0.0,1.92549,0.00043,386.848,0.032,1.0066,0.0019,139.999,44.999,31680.52623,1.94521,391.684,34.675,45.067,44.999,0.00,0.10,-272.75,-272.81,-10,516,-943,21.6,30.9,3.7,21.6,31.5,4.0,5.73,2.00,1.8,27.0
2015-09-15 01:08:00,0.0,1.92557,0.00039,386.856,0.065,1.0063,0.0035,140.001,44.998,31676.60924,1.94527,391.693,34.616,45.067,44.999,0.00,0.09,-272.74,-272.81,-10,516,-943,21.6,30.9,3.6,21.6,31.5,4.0,5.73,1.95,1.7,27.0
2015-09-15 01:09:00,0.0,1.92583,0.00042,386.850,0.044,0.9962,0.0023,140.001,44.998,31674.62452,1.94529,391.637,34.573,45.067,44.999,0.00,0.10,-272.73,-272.80,-10,516,-942,21.5,30.6,3.5,21.6,31.3,3.9,5.73,1.90,1.7,27.0
2015-09-15 01:10:00,0.0,1.92643,0.00042,386.839,0.031,0.9913,0.0035,140.001,44.999,31670.18985,1.94582,391.599,34.526,45.067,45.000,0.00,0.10,-272.74,-272.80,-10,516,-942,21.5,30.5,3.4,21.6,31.1,3.8,5.73,1.87,1.8,27.0
2015-09-15 01:11:00,0.0,1.92613,0.00039,386.848,0.034,0.9991,0.0031,140.001,44.999,31669.48888,1.94570,391.648,34.503,45.068,45.000,0.00,0.10,-272.75,-272.81,-10,516,-942,21.5,30.8,3.6,21.6,31.2,3.8,5.73,1.87,1.7,27.0
2015-09-15 01:12:00,0.0,1.92635,0.00031,386.777,0.037,1.0026,0.0027,140.001,44.999,31668.03117,1.94596,391.594,34.499,45.068,45.000,0.00,0.10,-272.74,-272.80,-10,516,-942,21.5,30.9,3.6,21.6,31.4,3.9,5.73,1.92,1.8,27.0
2015-09-15 01:13:00,0.0,1.92644,0.00036,386.822,0.043,0.9967,0.0046,140.001,45.000,31666.11799,1.94596,391.612,34.507,45.068,45.000,0.00,0.10,-272.74,-272.80,-10,516,-942,21.4,30.7,3.5,21.5,31.3,3.8,5.73,2.03,1.8,27.0
2015-09-15 01:14:00,0.0,1.92723,0.00038,386.890,0.037,0.9815,0.0027,139.998,45.000,31666.51937,1.94643,391.602,34.552,45.068,45.001,0.00,0.10,-272.75,-272.81,-10,516,-943,21.4,30.3,3.3,21.5,30.9,3.6,5.73,2.10,1.8,26.9
2015-09-15 01:15:00,0.0,1.92766,0.00046,386.908,0.030,0.9903,0.0037,140.005,45.001,31671.63365,1.94702,391.663,34.594,45.069,45.001,0.00,0.10,-272.74,-272.81,-9,515,-943,21.4,30.6,3.4,21.5,31.0,3.7,5.73,1.99,1.7,27.0
2015-09-15 01:16:00,0.0,1.92791,0.00038,386.900,0.046,0.9952,0.0023,139.997,45.001,31673.14579,1.94739,391.682,34.664,45.069,45.001,0.00,0.10,-272.74,-272.80,-9,516,-943,21.4,30.7,3.5,21.5,31.2,3.8,5.73,1.83,1.7,27.0
2015-09-15 01:17:00,0.0,1.92807,0.00047,386.979,0.054,1.0025,0.0044,140.002,45.001,31678.08464,1.94773,391.796,34.736,45.069,45.001,0.00,0.10,-272.74,-272.80,-9,515,-943,21.4,31.0,3.6,21.5,31.4,3.9,5.73,1.86,1.7,27.0
2015-09-15 01:18:00,0.0,1.92830,0.00041,386.886,0.024,0.9987,0.0057,139.998,45.001,31679.26881,1.94784,391.687,34.752,45.069,45.001,0.00,0.10,-272.75,-272.80,-10,515,-943,21.4,30.8,3.5,21.5,31.4,3.9,5.73,2.00,1.7,27.0
2015-09-15 01:19:00,0.0,1.92842,0.00032,386.954,0.034,0.9909,0.0029,139.999,45.001,31681.21920,1.94785,391.713,34.751,45.068,45.000,0.00,0.10,-272.75,-272.80,-10,516,-943,21.4,30.6,3.4,21.5,31.2,3.8,5.73,2.06,1.7,27.0
2015-09-15 01:20:00,0.0,1.92837,0.00035,386.927,0.024,0.9853,0.0021,140.002,45.000,31682.60621,1.94765,391.659,34.732,45.068,44.999,0.00,0.10,-272.75,-272.80,-10,516,-943,21.5,30.4,3.3,21.5,31.0,3.7,5.73,2.04,1.7,26.9
2015-09-15 01:21:00,0.0,1.92825,0.00028,386.928,0.027,0.9894,0.0028,140.000,44.999,31680.23560,1.94764,391.681,34.688,45.067,44.999,0.00,0.10,-272.74,-272.81,-10,516,-943,21.5,30.6,3.4,21.5,31.0,3.7,5.73,1.99,1.7,26.9
2015-09-15 01:22:00,0.0,1.92819,0.00048,386.902,0.032,0.9872,0.0030,140.000,44.999,31677.75612,1.94750,391.646,34.629,45.067,44.999,0.00,0.10,-272.74,-272.81,-10,516,-943,21.5,30.4,3.4,21.5,31.0,3.7,5.73,1.93,1.7,26.9
2015-09-15 01:23:00,0.0,1.92847,0.00022,386.941,0.034,0.9833,0.0035,140.003,44.999,31675.68894,1.94774,391.661,34.566,45.067,44.999,0.00,0.10,-272.74,-272.80,-10,516,-943,21.5,30.4,3.3,21.5,30.9,3.6,5.73,1.88,1.7,26.9
2015-09-15 01:24:00,0.0,1.92868,0.00037,386.953,0.033,0.9895,0.0021,139.996,44.999,31668.37270,1.94805,391.706,34.557,45.067,44.999,0.00,0.10,-272.74,-272.81,-10,516,-943,21.4,30.6,3.4,21.5,31.0,3.7,5.73,1.87,1.7,26.9
2015-09-15 01:25:00,0.0,1.92903,0.00045,386.956,0.041,0.9835,0.0067,139.999,44.999,31666.60966,1.94832,391.681,34.504,45.067,44.999,0.00,0.10,-272.75,-272.80,-10,516,-943,21.4,30.3,3.3,21.5,31.0,3.7,5.73,1.89,1.7,26.9
2015-09-15 01:26:00,0.0,1.92913,0.00031,386.990,0.042,0.9821,0.0044,140.001,44.999,31666.17103,1.94835,391.707,34.500,45.068,45.000,0.00,0.10,-272.74,-272.80,-9,516,-942,21.4,30.4,3.3,21.5,30.8,3.6,5.73,1.97,1.7,26.9
2015-09-15 01:27:00,0.0,1.92915,0.00043,386.941,0.026,0.9778,0.0028,140.001,45.000,31665.41825,1.94831,391.637,34.505,45.068,45.000,0.00,0.10,-272.75,-272.80,-9,516,-943,21.4,30.2,3.2,21.5,30.8,3.6,5.73,2.08,1.7,26.9
2015-09-15 01:28:00,0.0,1.92903,0.00036,386.965,0.032,0.9783,0.0030,140.000,45.001,31666.32459,1.94819,391.663,34.559,45.069,45.001,0.00,0.10,-272.75,-272.81,-9,516,-943,21.4,30.2,3.2,21.5,30.7,3.5,5.73,2.07,1.7,26.9
2015-09-15 01:29:00,0.0,1.92926,0.00036,386.977,0.038,0.9789,0.0041,140.001,45.001,31668.82624,1.94840,391.678,34.634,45.069,45.001,0.00,0.10,-272.74,-272.81,-9,515,-943,21.4,30.3,3.2,21.5,30.7,3.5,5.73,1.89,1.7,26.9
2015-09-15 01:30:00,0.0,1.92984,0.00039,387.015,0.040,0.9777,0.0027,139.999,45.001,31669.64891,1.94899,391.710,34.701,45.069,45.001,0.00,0.10,-272.74,-272.80,-10,515,-943,21.4,30.2,3.2,21.5,30.7,3.5,5.73,1.81,1.7,26.9
2015-09-15 01:31:00,0.0,1.93000,0.00043,387.045,0.041,0.9681,0.0034,140.002,45.001,31673.86059,1.94896,391.694,34.782,45.070,45.001,0.00,0.10,-272.75,-272.80,-10,515,-943,21.4,29.9,3.0,21.5,30.5,3.4,5.73,1.98,1.7,26.9
2015-09-15 01:32:00,0.0,1.93028,0.00039,387.040,0.026,0.9681,0.0021,139.999,45.002,31677.56060,1.94926,391.688,34.854,45.069,45.001,0.00,0.09,-272.75,-272.80,-10,515,-943,21.4,29.9,3.0,21.5,30.4,3.4,5.73,2.11,1.7,27.0
2015-09-15 01:33:00,0.0,1.92996,0.00030,387.072,0.053,0.9778,0.0041,140.001,45.001,31682.75805,1.94911,391.767,34.882,45.069,45.001,0.00,0.10,-272.74,-272.80,-9,516,-943,21.4,30.3,3.2,21.5,30.6,3.5,5.73,2.00,1.7,27.0
2015-09-15 01:34:00,0.0,1.92983,0.00030,387.058,0.040,0.9837,0.0033,140.001,45.001,31683.67250,1.94914,391.786,34.888,45.069,45.000,0.00,0.10,-272.74,-272.81,-9,516,-943,21.4,30.4,3.3,21.5,30.9,3.6,5.73,1.88,1.7,27.0
2015-09-15 01:35:00,0.0,1.92995,0.00045,387.033,0.032,0.9750,0.0027,140.001,45.000,31684.19155,1.94904,391.715,34.840,45.068,44.999,0.00,0.10,-272.74,-272.81,-9,516,-943,21.4,30.1,3.1,21.5,30.7,3.5,5.73,1.87,1.7,26.9
2015-09-15 01:36:00,0.0,1.92985,0.00041,387.018,0.026,0.9731,0.0035,140.001,45.000,31682.73899,1.94890,391.690,34.767,45.067,44.999,0.00,0.10,-272.73,-272.80,-10,516,-943,21.5,30.0,3.2,21.5,30.6,3.5,5.73,1.90,1.7,27.0
2015-09-15 01:37:00,0.0,1.92972,0.00038,387.039,0.050,0.9738,0.0028,140.002,44.999,31681.40108,1.94881,391.716,34.687,45.067,44.999,0.00,0.10,-272.74,-272.80,-10,516,-943,21.5,30.0,3.2,21.6,30.6,3.5,5.73,1.93,1.7,26.9
2015-09-15 01:38:00,0.0,1.92887,0.00039,386.988,0.039,0.9752,0.0030,140.000,44.999,31679.63608,1.94799,391.672,34.611,45.067,44.999,0.00,0.10,-272.75,-272.81,-9,516,-943,21.5,30.0,3.2,21.5,30.6,3.5,5.73,1.96,1.7,26.9
2015-09-15 01:39:00,0.0,1.92829,0.00036,386.968,0.046,0.9820,0.0053,139.999,44.998,31674.92992,1.94751,391.684,34.533,45.067,44.999,0.00,0.10,-272.74,-272.80,-10,516,-943,21.5,30.2,3.3,21.5,30.8,3.6,5.73,2.00,1.7,26.9
2015-09-15 01:40:00,0.0,1.92847,0.00039,387.047,0.102,0.9765,0.0032,139.999,44.999,31670.91235,1.94761,391.733,34.498,45.067,45.000,0.00,0.10,-272.74,-272.80,-10,516,-943,21.5,30.1,3.2,21.6,30.6,3.5,5.73,2.04,1.7,26.9
2015-09-15 01:41:00,0.0,1.92833,0.00048,387.282,0.056,0.9935,0.0058,140.002,44.999,31668.13421,1.94779,392.057,34.443,45.068,45.000,0.00,0.10,-272.75,-272.81,-10,516,-943,21.5,30.6,3.5,21.5,31.0,3.7,5.73,2.04,1.7,26.9
2015-09-15 01:42:00,0.0,1.92801,0.00047,387.107,0.075,0.9860,0.0039,140.001,44.999,31665.75137,1.94731,391.850,34.438,45.068,45.000,0.00,0.10,-272.75,-272.81,-10,516,-943,21.5,30.4,3.3,21.5,31.0,3.7,5.73,1.98,1.7,27.0
2015-09-15 01:43:00,0.0,1.92811,0.00039,387.149,0.059,0.9830,0.0043,139.997,45.000,31666.64324,1.94737,391.873,34.467,45.069,45.001,0.00,0.10,-272.73,-272.80,-10,516,-943,21.5,30.4,3.3,21.5,30.9,3.6,5.73,1.87,1.7,26.9
2015-09-15 01:44:00,0.0,1.92783,0.00027,387.099,0.052,0.9874,0.0019,140.001,45.001,31671.69296,1.94718,391.842,34.523,45.069,45.001,0.00,0.10,-272.74,-272.80,-10,515,-943,21.5,30.5,3.4,21.5,31.0,3.7,5.73,1.83,1.7,26.9
2015-09-15 01:45:00,0.0,1.92852,0.00052,387.003,0.048,0.9831,0.0064,139.999,45.001,31673.82497,1.94773,391.727,34.598,45.070,45.002,0.00,0.10,-272.75,-272.80,-10,516,-943,21.4,30.3,3.3,21.5,30.9,3.6,5.73,1.99,1.7,26.9
2015-09-15 01:46:00,0.0,1.92928,0.00038,387.038,0.041,0.9647,0.0069,140.001,45.001,31675.48394,1.94817,391.673,34.673,45.070,45.002,0.00,0.10,-272.75,-272.80,-9,515,-943,21.4,29.7,3.0,21.5,30.4,3.4,5.73,2.11,1.7,27.0